Sanders, Before Seed, Beyond Harvest
OptiGro Location.

Weather

  • Currently

    Reported at Greenville, Greenville Municipal Airport, MS
    9:53 PM CST SAT NOV 18 2017
  • 50°F10°C
  • Clear
    Clear
  • Feels Like:50°F10°CDew Point:37°F3°CHumidity:62% Winds:NW 15 mph 24 kph
    Pressure:30.09 in1019 hPaVisibility:10.00 miles16090.00 meters
Time Weather Temp Dew Point
Humidity Winds Visibility Pressure Precipitation
1 hr 24 hr
Saturday, November 18
23:15 23:15 Clear Clear 49°F10°C 38°F3°C 65% NW 17 mphNW 28 kph 10.0 miles16.1 km 30.12 in1020 hPa 0.00 in0.00 mm --
22:55 22:55 Clear Clear 49°F10°C 38°F3°C 65% NW 15 mphNW 24 kph 10.0 miles16.1 km 30.09 in1019 hPa 0.00 in0.00 mm --
22:35 22:35 Clear Clear 50°F10°C 38°F4°C 65% NW 15 mphNW 24 kph 10.0 miles16.1 km 30.09 in1019 hPa 0.00 in0.00 mm --
22:15 22:15 Clear Clear 50°F10°C 38°F4°C 64% NW 17 mphNW 28 kph 10.0 miles16.1 km 30.09 in1019 hPa 0.00 in0.00 mm --
21:55 21:55 Clear Clear 51°F10°C 38°F3°C 63% NW 18 mphNW 30 kph 10.0 miles16.1 km 30.06 in1018 hPa 0.00 in0.00 mm --
21:35 21:35 Clear Clear 50°F10°C 39°F4°C 65% NW 14 mphNW 22 kph 10.0 miles16.1 km 30.06 in1018 hPa 0.00 in0.00 mm --
21:15 21:15 Clear Clear 51°F11°C 38°F4°C 62% NW 16 mphNW 26 kph 10.0 miles16.1 km 30.06 in1018 hPa 0.00 in0.00 mm --
20:55 20:55 Clear Clear 52°F11°C 38°F3°C 59% NW 20 mphNW 31 kph 10.0 miles16.1 km 30.03 in1017 hPa 0.00 in0.00 mm --
20:35 20:35 Clear Clear 53°F12°C 39°F4°C 59% NNW 18 mphNNW 30 kph 10.0 miles16.1 km 30.03 in1017 hPa 0.00 in0.00 mm --
20:15 20:15 Clear Clear 53°F12°C 40°F4°C 62% NNW 20 mphNNW 31 kph 10.0 miles16.1 km 30.03 in1017 hPa 0.00 in0.00 mm --
19:55 19:55 Partly Cloudy Partly Cloudy 54°F12°C 40°F4°C 60% NW 25 mphNW 41 kph 10.0 miles16.1 km 30 in1016 hPa 0.00 in0.00 mm --
19:35 19:35 Partly Cloudy Partly Cloudy 54°F12°C 40°F5°C 60% NW 30 mphNW 48 kph 10.0 miles16.1 km 29.97 in1015 hPa 0.00 in0.00 mm --
19:15 19:15 Mostly Cloudy Mostly Cloudy 55°F13°C 42°F6°C 61% NW 26 mphNW 43 kph 10.0 miles16.1 km 29.97 in1015 hPa 0.00 in0.00 mm --
18:55 18:55 Clear Clear 56°F13°C 42°F6°C 60% NW 24 mphNW 39 kph 10.0 miles16.1 km 29.94 in1014 hPa 0.00 in0.00 mm --
18:35 18:35 Partly Cloudy Partly Cloudy 58°F14°C 44°F7°C 59% NNW 29 mphNNW 46 kph 10.0 miles16.1 km 29.91 in1013 hPa 0.00 in0.00 mm --
18:15 18:15 Partly Cloudy Partly Cloudy 60°F16°C 46°F8°C 59% NW 29 mphNW 46 kph 10.0 miles16.1 km 29.88 in1012 hPa 0.00 in0.00 mm --
17:55 17:55 Sunny Sunny 61°F16°C 46°F8°C 59% NW 24 mphNW 39 kph 10.0 miles16.1 km 29.83 in1010 hPa 0.00 in0.00 mm --
17:35 17:35 Sunny Sunny 62°F17°C 48°F9°C 59% NW 32 mphNW 52 kph 10.0 miles16.1 km 29.8 in1009 hPa 0.00 in0.00 mm --
17:15 17:15 Sunny Sunny 64°F18°C 50°F10°C 60% NW 31 mphNW 50 kph 10.0 miles16.1 km 29.8 in1009 hPa 0.00 in0.00 mm --
16:55 16:55 Mostly Cloudy Mostly Cloudy 67°F19°C 52°F11°C 59% NW 29 mphNW 46 kph 10.0 miles16.1 km 29.77 in1008 hPa 0.00 in0.00 mm --
16:35 16:35 Cloudy With Light Rain Cloudy With Light Rain 68°F20°C 56°F14°C 66% NW 32 mphNW 52 kph 10.0 miles16.1 km 29.74 in1007 hPa 0.00 in0.00 mm --
16:15 16:15 Cloudy Cloudy 73°F23°C 57°F14°C 57% WNW 23 mphWNW 37 kph 10.0 miles16.1 km 29.71 in1006 hPa 0.00 in0.00 mm --
15:55 15:55 Mostly Cloudy Mostly Cloudy 78°F26°C 63°F17°C 59% WSW 22 mphWSW 35 kph 10.0 miles16.1 km 29.65 in1004 hPa 0.00 in0.00 mm --
15:35 15:35 Partly Cloudy Partly Cloudy 79°F26°C 63°F17°C 58% SW 22 mphSW 35 kph 10.0 miles16.1 km 29.65 in1004 hPa 0.00 in0.00 mm --
15:15 15:15 Mostly Cloudy Mostly Cloudy N/AN/A N/AN/A % WSW 31 mphWSW 50 kph 10.0 miles16.1 km 29.65 in1004 hPa 0.00 in0.00 mm --
14:55 14:55 Partly Cloudy Partly Cloudy N/AN/A N/AN/A % N/AN/A 10.0 miles16.1 km 29.65 in1004 hPa 0.00 in0.00 mm --
14:35 14:35 Mostly Cloudy Mostly Cloudy N/AN/A N/AN/A % SW 24 mphSW 39 kph 10.0 miles16.1 km 29.65 in1004 hPa 0.00 in0.00 mm --
14:15 14:15 Cloudy Cloudy 78°F26°C 64°F18°C 61% WSW 22 mphWSW 35 kph 10.0 miles16.1 km 29.65 in1004 hPa 0.00 in0.00 mm --
13:55 13:55 Cloudy Cloudy 77°F25°C 64°F18°C 63% WSW 23 mphWSW 37 kph 10.0 miles16.1 km 29.65 in1004 hPa 0.00 in0.00 mm --
13:35 13:35 Cloudy Cloudy 78°F25°C 64°F18°C 63% N/AN/A 10.0 miles16.1 km 29.65 in1004 hPa 0.00 in0.00 mm --
13:15 13:15 Mostly Cloudy Mostly Cloudy 78°F25°C 65°F18°C 65% SW 25 mphSW 41 kph 10.0 miles16.1 km 29.65 in1004 hPa 0.00 in0.00 mm --
12:55 12:55 Cloudy Cloudy 76°F24°C 66°F19°C 73% SSW 23 mphSSW 37 kph 10.0 miles16.1 km 29.65 in1004 hPa 0.00 in0.00 mm --
12:35 12:35 Cloudy Cloudy 75°F24°C 66°F19°C 75% SW 26 mphSW 43 kph 10.0 miles16.1 km 29.68 in1005 hPa 0.00 in0.00 mm --
12:15 12:15 Cloudy Cloudy 75°F24°C 66°F19°C 75% SW 26 mphSW 43 kph 10.0 miles16.1 km 29.68 in1005 hPa 0.00 in0.00 mm --
11:55 11:55 Mostly Cloudy Mostly Cloudy 75°F24°C 66°F19°C 75% SW 20 mphSW 31 kph 10.0 miles16.1 km 29.71 in1006 hPa 0.00 in0.00 mm --
11:35 11:35 Cloudy Cloudy 74°F23°C 66°F19°C 77% SSW 24 mphSSW 39 kph 10.0 miles16.1 km 29.71 in1006 hPa 0.00 in0.00 mm --
11:15 11:15 Cloudy Cloudy 72°F22°C 66°F19°C 82% SSW 23 mphSSW 37 kph 10.0 miles16.1 km 29.71 in1006 hPa 0.00 in0.00 mm --
10:55 10:55 Cloudy Cloudy 71°F22°C 66°F19°C 85% SSW 16 mphSSW 26 kph 10.0 miles16.1 km 29.71 in1006 hPa 0.00 in0.00 mm --
10:35 10:35 Cloudy Cloudy 70°F21°C 67°F19°C 88% SSW 16 mphSSW 26 kph 10.0 miles16.1 km 29.71 in1006 hPa 0.00 in0.00 mm --
10:15 10:15 Cloudy Cloudy 70°F21°C 67°F19°C 88% SSW 16 mphSSW 26 kph 10.0 miles16.1 km 29.74 in1007 hPa 0.00 in0.00 mm --
09:55 09:55 Cloudy Cloudy 70°F21°C 67°F19°C 89% SSW 15 mphSSW 24 kph 10.0 miles16.1 km 29.74 in1007 hPa 0.00 in0.00 mm --
09:35 09:35 Cloudy Cloudy 69°F21°C 67°F20°C 92% SSW 16 mphSSW 26 kph 10.0 miles16.1 km 29.74 in1007 hPa 0.00 in0.00 mm --
09:15 09:15 Cloudy Cloudy 69°F21°C 67°F19°C 92% SSW 14 mphSSW 22 kph 10.0 miles16.1 km 29.74 in1007 hPa 0.00 in0.00 mm --
08:55 08:55 Cloudy Cloudy 68°F20°C 67°F20°C 96% SSW 14 mphSSW 22 kph 10.0 miles16.1 km 29.74 in1007 hPa 0.00 in0.00 mm --
08:35 08:35 Cloudy Cloudy 67°F20°C 67°F20°C 100% SSW 14 mphSSW 22 kph 10.0 miles16.1 km 29.74 in1007 hPa 0.00 in0.00 mm --
08:15 08:15 Cloudy Cloudy 67°F20°C 67°F20°C 100% S 17 mphS 28 kph 10.0 miles16.1 km 29.71 in1006 hPa 0.00 in0.00 mm --
07:55 07:55 Cloudy Cloudy 67°F20°C 67°F19°C 99% S 16 mphS 26 kph 10.0 miles16.1 km 29.71 in1006 hPa 0.00 in0.00 mm --
07:35 07:35 Cloudy Cloudy 67°F19°C 67°F19°C 99% S 18 mphS 30 kph 10.0 miles16.1 km 29.71 in1006 hPa 0.00 in0.00 mm --
07:15 07:15 Cloudy Cloudy 67°F19°C 66°F19°C 98% S 21 mphS 33 kph 10.0 miles16.1 km 29.71 in1006 hPa 0.00 in0.00 mm --
06:55 06:55 Cloudy Cloudy 67°F19°C 66°F19°C 97% S 18 mphS 30 kph 10.0 miles16.1 km 29.74 in1007 hPa 0.00 in0.00 mm --
06:35 06:35 Cloudy Cloudy 67°F19°C 66°F19°C 97% S 21 mphS 33 kph 10.0 miles16.1 km 29.74 in1007 hPa 0.00 in0.00 mm --
06:15 06:15 Cloudy Cloudy 66°F19°C 65°F19°C 97% S 20 mphS 31 kph 10.0 miles16.1 km 29.74 in1007 hPa 0.00 in0.00 mm --
05:55 05:55 Cloudy Cloudy 66°F19°C 65°F19°C 99% S 17 mphS 28 kph 10.0 miles16.1 km 29.74 in1007 hPa 0.00 in0.00 mm --
05:35 05:35 Cloudy Cloudy 65°F18°C 65°F18°C 100% S 15 mphS 24 kph 10.0 miles16.1 km 29.74 in1007 hPa 0.00 in0.00 mm --
05:15 05:15 Cloudy Cloudy 65°F18°C 65°F18°C 100% S 15 mphS 24 kph 10.0 miles16.1 km 29.77 in1008 hPa 0.00 in0.00 mm --
04:55 04:55 Cloudy Cloudy 65°F18°C 64°F18°C 98% S 16 mphS 26 kph 10.0 miles16.1 km 29.77 in1008 hPa 0.00 in0.00 mm --
04:35 04:35 Cloudy Cloudy 65°F18°C 64°F18°C 96% S 18 mphS 30 kph 10.0 miles16.1 km 29.77 in1008 hPa 0.00 in0.00 mm --
04:15 04:15 Cloudy Cloudy 65°F18°C 64°F18°C 95% S 17 mphS 28 kph 10.0 miles16.1 km 29.77 in1008 hPa 0.00 in0.00 mm --
03:55 03:55 Cloudy Cloudy 65°F18°C 63°F17°C 92% S 17 mphS 28 kph 10.0 miles16.1 km 29.8 in1009 hPa 0.00 in0.00 mm --
03:35 03:35 Cloudy Cloudy 65°F18°C 62°F17°C 90% S 16 mphS 26 kph 10.0 miles16.1 km 29.8 in1009 hPa 0.00 in0.00 mm --
03:15 03:15 Cloudy Cloudy 65°F18°C 62°F17°C 89% S 17 mphS 28 kph 10.0 miles16.1 km 29.8 in1009 hPa 0.00 in0.00 mm --
02:55 02:55 Cloudy Cloudy 65°F18°C 62°F16°C 88% S 16 mphS 26 kph 10.0 miles16.1 km 29.8 in1009 hPa 0.00 in0.00 mm --
02:35 02:35 Cloudy Cloudy 65°F18°C 61°F16°C 87% S 16 mphS 26 kph 10.0 miles16.1 km 29.8 in1009 hPa 0.00 in0.00 mm --
02:15 02:15 Cloudy Cloudy 66°F19°C 61°F16°C 85% S 18 mphS 30 kph 10.0 miles16.1 km 29.8 in1009 hPa 0.00 in0.00 mm --
01:55 01:55 Mostly Cloudy Mostly Cloudy 65°F19°C 61°F16°C 84% S 20 mphS 31 kph 10.0 miles16.1 km 29.8 in1009 hPa 0.00 in0.00 mm --
01:35 01:35 Mostly Cloudy Mostly Cloudy 65°F18°C 60°F16°C 83% S 16 mphS 26 kph 10.0 miles16.1 km 29.8 in1009 hPa 0.00 in0.00 mm --
01:15 01:15 Partly Cloudy Partly Cloudy 65°F18°C 59°F15°C 81% S 17 mphS 28 kph 10.0 miles16.1 km 29.83 in1010 hPa 0.00 in0.00 mm --